Temperature
20 17 16 16 17 18 19 19 19 20 21 21 19 18 18 18 17 17 16 16 16 16 17 18 18 18 18 18 18 18 18 18 18 18 18 18 18 17 17 17 17 17 17 17
17 16 18 19 20 20 19 19 19 20 21 21 18 18 17 17 16 16 16 15 15 16 16 16 17 17 17 17 17 18 18 18 18 18 18 18 18 17 17 17 16 16 16 16
17 18 20 21 20 20 20 19 20 20 20 20 19 17 17 16 15 15 15 14 14 14 15 15 16 16 16 16 16 17 17 17 17 17 17 17 17 16 16 16 16 16 15 15
18 19 21 21 20 21 19 21 21 21 18 17 18 16 16 16 15 14 14 14 14 14 14 14 15 15 15 15 16 16 16 16 17 17 17 17 16 16 15 15 15 15 15 15
19 20 20 20 21 21 20 21 21 20 18 17 17 16 16 16 15 14 13 13 13 13 13 13 14 14 14 15 15 15 15 16 16 16 16 16 16 15 15 14 14 14 14 13
19 20 20 21 21 21 21 20 19 17 15 16 17 17 15 15 15 14 13 12 12 13 13 13 13 13 14 14 14 14 15 15 15 15 15 15 15 15 14 14 13 13 13 12
18 19 20 21 20 20 19 17 16 16 15 16 17 17 15 15 15 14 13 12 12 12 12 12 12 12 13 13 13 13 14 14 14 14 14 14 14 14 13 12 12 12 12 11
17 17 19 20 20 19 18 17 15 16 15 16 16 16 15 14 13 13 12 11 11 11 11 11 11 11 12 12 12 13 13 13 13 13 13 12 12 12 12 11 11 11 11 10
17 17 19 20 20 20 19 17 16 15 16 16 15 15 14 13 13 12 11 11 10 10 10 10 11 11 11 11 11 11 12 12 12 12 12 11 11 11 10 10 10 9 9 9
17 17 18 19 20 20 19 18 15 15 15 15 16 15 15 14 13 12 11 10 10 10 10 10 10 10 10 10 10 10 10 10 10 10 10 10 10 10 9 9 9 8 8 7
17 16 17 18 18 18 18 18 16 14 15 15 15 14 15 14 13 12 10 10 9 9 9 9 9 9 9 9 9 9 9 9 9 9 9 9 8 8 8 8 7 7 7 7
16 14 15 16 18 18 18 17 16 15 15 14 14 13 14 13 12 11 10 9 9 9 9 8 8 8 8 8 8 8 8 8 8 8 8 8 7 7 7 6 6 6 6 6
16 14 14 15 16 16 17 17 16 14 13 14 14 13 13 12 11 10 9 9 8 8 8 8 8 8 8 8 8 8 8 7 7 7 7 7 6 6 6 6 6 6 5 5
15 13 14 15 15 15 16 17 17 15 13 14 14 13 12 11 11 9 9 8 8 8 8 8 8 7 7 7 7 7 7 7 7 6 6 6 6 6 5 5 5 5 5 5
15 14 14 15 16 16 17 17 17 16 15 14 14 13 12 11 10 9 8 8 7 7 7 7 7 7 7 7 7 7 6 6 6 6 6 6 5 5 5 5 5 5 5 5
14 14 15 15 16 17 17 16 16 16 15 14 13 12 11 10 10 9 8 8 7 7 7 7 7 7 6 6 6 6 6 6 6 6 5 5 5 5 5 5 5 5 5 5
13 13 14 14 15 16 15 15 15 14 14 14 13 12 10 10 9 8 8 8 7 7 7 7 7 6 6 6 6 6 6 6 6 6 5 5 5 5 5 5 5 5 4 4
14 13 12 13 15 14 14 15 15 14 13 12 11 11 10 9 9 8 8 8 7 7 7 6 6 6 6 6 6 6 6 6 6 5 5 5 5 5 5 5 5 4 4 4
14 13 13 13 14 14 15 15 14 13 12 12 11 10 9 8 8 7 8 8 7 7 7 6 6 6 6 6 6 6 6 6 6 5 5 5 5 5 5 5 4 4 4 4
14 13 13 13 14 14 15 16 15 13 11 11 10 9 9 9 8 7 7 7 7 7 6 6 6 6 6 6 6 6 6 6 5 5 5 5 5 5 5 5 4 4 4 4
15 14 14 13 13 14 15 15 15 13 12 10 10 9 9 9 8 7 7 7 7 6 6 6 6 6 6 6 6 6 6 5 5 5 5 5 5 5 5 5 5 4 4 4
14 14 13 13 13 13 14 14 13 11 11 10 9 9 9 8 8 7 7 6 6 6 6 6 6 6 6 6 6 6 5 5 5 5 5 5 5 5 5 5 5 4 4 4
14 13 12 11 12 12 13 13 13 12 11 10 9 9 9 7 7 7 6 6 6 6 6 6 6 6 6 6 6 6 5 5 5 5 5 5 5 5 5 5 5 4 4 4
15 13 12 11 12 12 12 12 12 12 11 10 10 9 8 8 7 7 6 6 6 6 6 6 6 6 6 5 5 5 5 5 5 5 5 5 5 5 5 5 5 4 4 4
15 14 12 11 11 11 11 12 11 11 10 10 9 9 8 8 7 7 6 6 6 6 6 6 6 6 5 5 5 5 5 5 5 5 5 5 5 5 5 5 5 4 4 4
14 13 12 11 12 11 11 11 11 10 10 9 8 8 8 8 7 7 6 6 6 6 6 6 6 6 6 6 6 6 6 6 6 6 6 6 6 5 5 5 5 5 4 4
Wind_Speed
2 2 6 11 11 9 7 8 11 13 10 2 3 4 3 5 9 10 10 10 10 9 8 9 10 9 7 5 6 5 6 5 6 6 6 6 6 6 6 6 9 10 9 8
4 7 15 12 9 8 9 10 11 10 7 3 6 6 6 8 8 9 11 11 11 9 10 9 10 10 8 7 7 5 4 4 3 5 5 5 7 7 6 6 10 11 10 9
8 11 9 7 10 10 10 8 7 5 5 5 6 5 4 7 10 11 12 12 12 11 10 10 11 10 9 8 7 5 4 4 4 6 7 9 7 6 5 7 7 10 12 12
7 10 9 8 8 6 7 7 5 2 4 3 2 1 1 4 8 9 9 10 11 11 10 10 10 9 8 8 7 6 5 6 5 6 8 10 8 7 6 6 7 9 13 13
7 7 7 7 7 4 6 5 2 1 1 2 2 3 3 3 5 6 7 9 11 11 10 10 9 8 8 8 7 8 8 8 8 9 10 11 10 9 8 8 10 9 10 13
8 6 4 5 6 4 2 4 6 6 5 3 4 3 4 3 6 8 9 10 10 10 10 11 10 9 9 9 8 8 10 11 11 12 12 12 13 12 12 10 9 8 7 7
7 7 5 2 4 6 5 5 4 5 4 5 3 2 2 1 6 11 12 10 10 10 9 10 11 10 10 10 10 10 12 13 12 13 13 12 12 12 12 10 9 8 7 7
3 7 5 2 2 3 2 7 6 4 4 4 3 1 2 7 11 12 11 11 11 10 10 10 10 10 10 11 11 11 12 13 12 13 13 12 11 10 9 10 9 9 8 7
4 6 5 5 3 4 2 3 7 6 2 1 1 3 3 7 11 12 12 11 11 10 11 11 10 11 11 12 11 11 12 13 13 13 14 13 12 12 12 10 9 8 7 7
5 4 6 5 3 1 5 3 4 4 3 2 1 2 4 8 10 11 11 11 11 10 11 11 11 11 11 11 11 12 12 13 13 12 12 12 12 12 11 10 10 9 8 8
3 2 6 4 1 2 3 1 2 3 4 5 2 2 2 8 11 12 11 12 12 11 11 10 10 10 11 11 11 11 12 13 13 12 12 12 11 11 11 10 9 8 7 8
3 4 3 6 5 2 2 2 4 3 1 3 3 2 4 8 11 13 13 12 13 12 12 11 11 10 10 11 10 11 11 11 11 11 11 11 10 10 10 9 8 8 8 8
4 5 3 8 7 7 4 2 2 4 4 3 4 1 4 11 12 13 14 13 12 13 12 11 11 11 10 10 10 11 10 10 10 10 10 10 9 9 9 8 8 8 8 8
5 5 5 3 3 3 4 6 5 4 4 4 5 7 7 11 12 12 13 13 13 12 12 11 10 10 9 9 9 10 10 9 10 9 9 9 9 8 8 8 7 7 7 8
5 3 2 3 4 1 2 5 7 4 4 6 8 8 10 11 12 12 13 13 14 13 12 11 11 9 9 8 8 9 8 8 8 9 9 8 7 7 7 7 7 7 7 7
4 3 1 2 2 3 5 6 6 5 5 8 10 6 6 10 10 11 12 13 14 13 13 11 11 10 8 8 8 8 7 7 7 8 7 6 7 7 6 6 6 7 6 6
3 4 2 1 2 2 4 3 3 3 4 6 5 5 12 11 12 12 12 13 13 13 12 11 10 9 8 7 7 7 6 6 7 7 6 5 5 6 5 5 5 5 4 4
6 5 3 1 3 3 3 1 7 8 6 6 9 11 10 10 9 7 9 12 13 12 11 10 8 8 7 6 5 5 5 6 6 5 5 5 5 5 5 5 4 3 2 3
7 7 4 3 2 1 2 2 5 5 4 5 11 12 11 13 10 6 6 10 11 10 10 8 7 7 6 6 5 6 5 5 6 5 5 5 5 5 4 3 2 1 2 2
4 5 5 4 3 2 2 1 7 9 4 4 10 13 13 10 6 6 8 11 12 11 9 8 7 6 6 5 6 7 6 6 5 5 5 5 5 4 3 2 1 1 1 2
2 3 3 3 2 1 2 1 4 3 6 8 9 11 10 4 5 11 12 11 11 10 9 8 8 6 5 5 7 7 6 5 4 5 5 4 3 3 3 1 1 1 1 1
5 4 2 3 3 4 4 2 3 4 5 9 8 8 7 9 13 14 13 12 11 10 9 8 7 6 4 6 7 7 5 4 4 4 4 3 2 2 3 2 2 3 3 3
3 5 5 4 4 2 2 5 5 8 9 7 7 9 13 14 14 14 12 12 10 9 8 7 7 6 5 5 7 6 3 3 4 4 3 2 2 2 3 4 4 4 4 3
3 5 6 6 5 6 8 9 8 10 10 10 12 13 14 14 15 13 12 10 9 8 8 7 7 7 5 5 5 5 4 3 4 3 1 0 2 2 3 3 3 3 3 3
6 5 6 6 7 9 7 9 12 13 14 15 13 13 13 15 14 12 11 10 9 7 6 7 7 7 6 5 4 4 3 3 2 1 1 1 2 3 3 2 2 3 2 3
3 7 8 8 11 8 8 10 15 15 14 15 15 13 12 12 13 11 10 8 8 8 7 7 7 7 6 5 4 3 3 4 3 1 1 1 1 3 3 3 1 2 2 2
Wind_Direction
266 125 243 240 222 220 250 273 283 282 288 304 138 119 79 78 88 93 93 96 93 85 78 71 67 68 68 76 94 117 143 154 144 138 134 125 110 95 83 75 72 75 80 84
340 261 243 242 245 241 255 269 278 293 331 35 104 94 78 72 80 92 104 103 97 84 72 66 65 64 62 68 67 65 80 103 116 125 123 114 110 98 87 71 60 56 62 67
234 252 260 255 258 257 263 252 257 281 345 33 85 49 58 72 75 80 87 93 92 88 80 70 71 66 61 56 51 46 37 70 74 105 113 112 103 92 81 66 59 52 58 64
249 261 278 274 266 253 267 260 245 290 354 302 72 138 268 106 83 80 84 86 87 88 83 79 79 74 63 57 57 53 41 53 65 91 112 117 117 110 94 87 77 63 59 61
266 282 293 282 268 268 255 263 289 320 346 329 12 125 249 142 111 109 101 93 89 86 84 78 73 72 64 58 56 56 54 57 62 78 98 104 105 104 101 91 81 72 62 61
260 271 250 250 276 274 288 7 13 32 58 327 261 159 246 221 171 139 116 98 89 84 78 71 63 59 61 57 55 59 63 64 67 76 83 98 106 108 105 99 92 80 72 62
312 309 297 277 322 334 42 68 24 356 1 266 289 127 250 262 125 129 122 107 92 84 79 74 66 61 60 58 57 64 71 68 68 77 80 87 95 97 100 101 98 93 83 73
286 296 291 304 192 247 260 139 161 206 234 280 351 109 58 82 93 100 103 101 91 81 75 71 66 66 66 64 63 68 74 74 74 78 81 80 84 89 90 90 94 90 88 82
208 262 283 284 250 179 240 215 180 158 208 270 248 123 110 104 105 107 105 100 93 86 80 75 69 67 67 68 66 72 79 80 77 79 82 81 84 89 91 90 90 90 86 84
177 259 292 305 341 281 179 190 89 116 154 251 249 172 180 165 147 129 116 109 102 94 86 80 76 75 74 74 74 73 77 81 80 81 85 89 85 88 91 92 87 85 80 79
151 190 309 347 20 285 346 11 123 131 156 162 211 258 299 181 159 139 127 120 113 105 97 89 83 82 82 80 79 79 79 82 82 83 85 87 86 86 86 86 84 83 78 77
137 119 295 280 267 254 165 195 142 147 243 152 149 269 3 126 130 128 123 119 114 109 103 98 93 88 84 83 83 84 84 85 87 89 88 86 84 82 82 82 81 80 79 77
120 98 16 346 353 6 20 351 123 140 126 138 142 173 81 109 116 120 121 123 118 113 107 100 95 92 89 89 89 88 87 88 89 91 91 88 85 83 82 81 78 78 81 80
115 102 146 187 243 289 325 351 11 110 130 144 157 152 143 132 131 129 126 125 120 114 110 106 100 96 92 89 91 93 92 93 95 94 93 90 88 87 84 80 78 80 85 88
94 120 190 232 249 232 54 29 28 60 140 153 159 155 159 153 146 139 134 129 124 120 117 112 108 103 98 95 93 94 95 94 98 97 94 93 93 89 83 78 78 79 83 93
97 135 131 352 8 76 76 56 52 56 83 116 123 111 129 130 130 136 139 137 132 129 125 119 114 109 104 102 102 102 101 98 98 99 99 98 94 90 87 85 83 80 81 87
119 123 96 339 333 63 45 35 74 75 87 132 141 141 139 140 145 149 147 142 138 135 131 126 121 117 113 109 109 110 110 107 105 107 107 102 101 99 97 96 86 88 92 98
132 116 118 97 43 69 276 95 108 92 60 95 113 129 136 135 124 121 135 138 136 135 131 125 121 116 112 112 112 110 106 110 112 111 112 110 110 105 100 96 98 103 106 111
140 135 125 116 96 138 163 174 152 121 83 109 126 127 121 118 104 99 121 129 131 130 128 124 122 119 116 118 119 109 102 106 108 109 111 111 109 105 105 103 106 114 115 120
98 104 117 124 131 177 242 198 135 107 126 157 141 143 144 138 142 154 138 127 126 125 126 127 122 112 113 115 109 102 102 105 109 112 111 111 107 109 115 130 145 138 142 156
86 59 98 124 125 199 312 185 139 143 197 165 156 156 159 159 152 138 133 127 128 129 130 126 121 118 123 117 106 106 109 115 124 117 106 101 107 123 139 122 61 77 86 95
145 132 123 121 128 235 309 73 135 172 129 138 144 149 135 120 122 128 132 132 133 130 127 125 122 124 124 118 114 113 118 125 114 105 99 95 98 108 113 92 54 54 65 65
115 156 142 138 176 218 66 107 116 119 121 123 131 132 129 128 131 132 132 134 133 133 131 127 128 126 122 123 122 121 139 131 111 103 99 88 75 83 94 97 82 61 59 66
112 109 100 96 113 109 99 99 96 107 113 119 127 130 133 131 133 131 133 134 133 131 132 130 126 125 127 133 135 146 157 139 124 133 155 124 103 89 87 91 97 92 83 78
160 113 99 105 131 107 101 116 115 109 111 114 117 121 127 128 130 131 133 135 136 134 136 135 138 144 152 152 154 169 165 138 136 175 223 206 158 146 135 115 115 131 157 166
171 146 147 178 178 148 148 138 128 124 125 128 125 119 123 128 130 129 132 135 137 139 141 143 150 157 163 163 179 202 193 170 166 195 227 218 187 172 160 148 79 29 178 164
Height
1500 1506 1509 1504 1501 1501 1500 1501 1501 1490 1480 1483 1487 1489 1488 1486 1485 1486 1488 1489 1492 1494 1495 1496 1498 1501 1504 1505 1509 1512 1516 1519 1522 1525 1529 1531 1533 1536 1538 1539 1541 1543 1545 1547
1505 1506 1496 1492 1493 1494 1496 1500 1497 1487 1479 1482 1489 1491 1490 1489 1489 1488 1489 1491 1493 1495 1496 1498 1500 1501 1505 1505 1507 1510 1512 1516 1520 1523 1525 1529 1531 1534 1536 1538 1540 1542 1543 1545
1505 1496 1487 1489 1490 1492 1492 1495 1492 1489 1484 1484 1489 1498 1496 1494 1494 1494 1493 1493 1494 1497 1498 1500 1500 1503 1505 1506 1507 1510 1513 1515 1517 1520 1522 1526 1529 1531 1534 1536 1538 1540 1541 1542
1496 1488 1487 1487 1487 1486 1493 1482 1482 1484 1493 1500 1494 1511 1502 1498 1498 1499 1498 1498 1498 1499 1500 1502 1502 1504 1506 1508 1509 1511 1512 1515 1517 1519 1521 1524 1526 1529 1532 1535 1536 1538 1539 1540
1493 1486 1486 1486 1482 1480 1483 1477 1479 1483 1492 1500 1499 1508 1507 1499 1501 1502 1502 1502 1501 1502 1504 1505 1505 1506 1507 1509 1510 1511 1513 1514 1516 1517 1520 1522 1525 1527 1530 1533 1536 1537 1538 1539
1486 1481 1481 1479 1476 1475 1476 1478 1483 1490 1500 1510 1501 1506 1509 1501 1498 1500 1503 1504 1504 1505 1506 1507 1508 1509 1509 1510 1512 1512 1512 1514 1515 1517 1520 1522 1524 1526 1529 1532 1535 1536 1537 1538
1489 1482 1477 1475 1477 1476 1479 1495 1512 1514 1519 1514 1498 1502 1507 1497 1496 1499 1503 1505 1506 1508 1509 1509 1510 1510 1510 1511 1512 1512 1513 1514 1516 1518 1519 1522 1524 1527 1529 1532 1534 1536 1537 1538
1498 1495 1480 1475 1478 1483 1483 1493 1513 1519 1520 1513 1501 1506 1505 1500 1501 1503 1506 1508 1510 1511 1512 1512 1513 1513 1513 1513 1514 1514 1516 1517 1518 1519 1521 1523 1525 1528 1530 1532 1534 1536 1537 1539
1496 1493 1477 1473 1472 1475 1482 1487 1490 1504 1506 1512 1509 1506 1505 1504 1504 1507 1510 1511 1513 1514 1515 1515 1516 1516 1516 1517 1518 1517 1519 1519 1520 1522 1523 1526 1528 1529 1531 1534 1536 1537 1539 1541
1485 1491 1480 1473 1470 1471 1476 1480 1493 1503 1513 1517 1509 1507 1507 1505 1505 1508 1511 1513 1515 1517 1518 1519 1519 1520 1520 1521 1521 1521 1522 1522 1523 1525 1526 1529 1530 1532 1534 1536 1538 1539 1541 1543
1481 1490 1486 1479 1479 1480 1479 1482 1488 1499 1503 1513 1516 1514 1499 1499 1502 1505 1510 1514 1517 1519 1520 1522 1523 1523 1524 1525 1525 1525 1525 1526 1528 1529 1531 1532 1534 1535 1537 1539 1541 1542 1544 1545
1481 1490 1494 1485 1475 1473 1477 1481 1488 1501 1504 1505 1511 1515 1499 1498 1502 1506 1511 1515 1517 1520 1522 1524 1526 1527 1527 1528 1529 1529 1530 1531 1532 1534 1535 1536 1538 1540 1541 1543 1544 1546 1547 1548
1480 1492 1500 1495 1489 1482 1481 1480 1482 1491 1500 1505 1510 1513 1504 1503 1507 1509 1512 1516 1519 1521 1523 1526 1528 1529 1531 1532 1532 1533 1534 1536 1537 1538 1539 1541 1543 1544 1545 1547 1548 1549 1550 1551
1477 1491 1500 1503 1499 1491 1487 1481 1479 1487 1499 1502 1502 1505 1506 1507 1509 1512 1514 1517 1520 1523 1525 1527 1530 1531 1533 1535 1536 1537 1539 1540 1541 1543 1544 1545 1547 1548 1549 1550 1551 1552 1553 1553
1478 1490 1491 1490 1486 1484 1484 1482 1480 1484 1488 1496 1498 1500 1503 1507 1510 1513 1516 1519 1522 1525 1527 1530 1532 1534 1536 1538 1539 1541 1542 1544 1545 1547 1548 1549 1551 1552 1553 1554 1554 1555 1555 1556
1481 1488 1489 1490 1484 1483 1484 1483 1483 1485 1487 1492 1497 1503 1504 1508 1512 1515 1518 1520 1523 1526 1529 1532 1534 1536 1539 1540 1542 1544 1546 1548 1549 1550 1551 1553 1554 1555 1556 1557 1557 1557 1557 1557
1483 1488 1493 1496 1488 1486 1494 1489 1489 1491 1491 1493 1499 1503 1506 1510 1513 1516 1518 1521 1523 1527 1531 1533 1536 1539 1541 1543 1545 1547 1549 1550 1552 1553 1555 1556 1557 1557 1558 1559 1559 1559 1559 1558
1481 1488 1495 1498 1495 1504 1499 1488 1489 1494 1496 1495 1498 1503 1506 1510 1514 1518 1520 1522 1525 1529 1532 1535 1538 1541 1544 1546 1548 1550 1552 1553 1555 1556 1558 1558 1559 1560 1560 1561 1561 1561 1560 1560
1473 1483 1492 1499 1502 1501 1495 1490 1491 1495 1502 1500 1501 1506 1509 1513 1517 1522 1523 1524 1527 1531 1534 1537 1540 1543 1546 1548 1551 1553 1555 1556 1558 1559 1560 1561 1561 1562 1562 1562 1562 1562 1561 1560
1475 1478 1488 1496 1502 1504 1497 1488 1487 1493 1505 1504 1503 1506 1510 1513 1518 1523 1524 1526 1530 1533 1537 1540 1543 1546 1548 1551 1553 1555 1556 1558 1560 1561 1562 1563 1563 1563 1563 1563 1563 1562 1562 1561
1482 1485 1489 1495 1500 1497 1491 1487 1488 1499 1502 1502 1503 1506 1509 1511 1515 1520 1524 1528 1532 1535 1539 1542 1545 1548 1551 1553 1555 1557 1559 1560 1562 1563 1564 1564 1564 1564 1564 1564 1563 1563 1562 1561
1483 1488 1491 1495 1503 1503 1490 1488 1492 1495 1494 1499 1503 1506 1509 1511 1515 1520 1525 1529 1534 1537 1541 1544 1547 1550 1553 1555 1557 1558 1560 1562 1563 1564 1565 1565 1565 1565 1565 1564 1564 1563 1562 1561
1478 1482 1488 1493 1499 1493 1489 1489 1491 1492 1496 1500 1503 1507 1509 1513 1517 1522 1527 1531 1536 1539 1543 1546 1549 1552 1554 1556 1558 1559 1561 1563 1564 1565 1566 1566 1566 1566 1565 1564 1564 1563 1562 1561
1477 1478 1485 1492 1494 1493 1493 1493 1495 1496 1499 1502 1505 1508 1511 1514 1519 1524 1529 1534 1538 1542 1545 1548 1551 1553 1556 1558 1560 1561 1563 1564 1565 1566 1566 1566 1566 1566 1565 1564 1563 1562 1561 1560
1474 1477 1485 1492 1494 1495 1496 1497 1498 1500 1503 1505 1509 1511 1514 1517 1522 1527 1531 1536 1540 1544 1547 1550 1552 1555 1557 1559 1561 1562 1564 1565 1565 1566 1566 1566 1566 1566 1565 1565 1564 1563 1561 1560
1470 1474 1482 1488 1488 1491 1497 1498 1500 1502 1506 1508 1511 1515 1519 1521 1525 1530 1534 1538 1542 1546 1549 1552 1554 1556 1559 1561 1562 1563 1564 1565 1566 1566 1566 1566 1566 1565 1565 1565 1564 1563 1562 1561